SWAS

Last updated on Thu Oct 30 2025 00:03:36 GMT+0000 (Coordinated Universal Time)

1 25560U 98071A 25302.47749010 .00004466 00000+0 30140-3 0 9997 2 25560 69.8955 101.5737 0008894 258.2410 101.7755 15.07329488462473
UTC large
Height (km)
Speed (km/s)
/
Latitude / Longitude
Inclination (degrees)
Orbital Period (minutes)
Azimuth
Elevation
Range (km)
Doppler Factor

Next 0 passes for location: London (51.5072 / 0.1276)

Sorry there are no passes over London.